Time,TemperatureF,DewpointF,PressureIn,WindDirection,WindDirectionDegrees,WindSpeedMPH,WindSpeedGustMPH,Humidity,HourlyPrecipIn,Conditions,Clouds,dailyrainin,SolarRadiationWatts/m^2,SoftwareType,DateUTC
2013-11-03 00:42:00,48.0,41.0,29.89,North,5,2.0,8.0,76,0.00,,,0.00,0.000000,,2013-11-03 07:42:00,
2013-11-03 00:52:00,48.0,41.0,29.89,North,5,2.0,8.0,76,0.00,,,0.00,0.000000,,2013-11-03 07:52:00,
2013-11-03 01:52:00,47.0,41.0,29.88,SE,127,1.0,4.0,79,0.00,,,0.00,0.000000,,2013-11-03 08:52:00,
2013-11-03 08:23:00,53.0,45.0,29.91,NNE,15,1.0,5.0,74,-99.99,,,0.00,145.000000,,2013-11-03 16:23:00,
2013-11-03 08:34:00,53.0,45.0,29.91,NNE,15,1.0,5.0,74,-99.99,,,0.00,145.000000,,2013-11-03 16:34:00,
2013-11-03 08:43:00,53.0,45.0,29.91,NNE,15,1.0,5.0,74,-99.99,,,0.00,145.000000,,2013-11-03 16:43:00,
2013-11-03 08:53:00,53.0,45.0,29.91,NNE,15,1.0,5.0,74,-99.99,,,0.00,145.000000,,2013-11-03 16:53:00,
2013-11-03 09:43:00,66.0,52.0,29.91,NE,44,1.0,5.0,61,0.00,,,0.00,364.000000,,2013-11-03 17:43:00,
2013-11-03 09:52:00,66.0,52.0,29.91,NE,44,1.0,5.0,61,0.00,,,0.00,364.000000,,2013-11-03 17:52:00,
2013-11-03 10:23:00,66.0,52.0,29.89,South,183,12.0,16.0,61,0.00,,,0.00,531.000000,,2013-11-03 18:23:00,
2013-11-03 10:32:00,66.0,52.0,29.89,South,183,12.0,16.0,61,0.00,,,0.00,531.000000,,2013-11-03 18:32:00,
2013-11-03 10:42:00,66.0,52.0,29.89,South,183,12.0,16.0,61,0.00,,,0.00,531.000000,,2013-11-03 18:42:00,
2013-11-03 10:52:00,66.0,52.0,29.89,South,183,12.0,16.0,61,0.00,,,0.00,531.000000,,2013-11-03 18:52:00,
2013-11-03 11:22:00,67.0,52.0,29.88,South,191,12.0,20.0,59,0.00,,,0.00,648.000000,,2013-11-03 19:22:00,
2013-11-03 11:33:00,67.0,52.0,29.88,South,191,12.0,20.0,59,0.00,,,0.00,648.000000,,2013-11-03 19:33:00,
2013-11-03 11:42:00,67.0,52.0,29.88,South,191,12.0,20.0,59,0.00,,,0.00,648.000000,,2013-11-03 19:42:00,
2013-11-03 11:53:00,67.0,52.0,29.88,South,191,12.0,20.0,59,0.00,,,0.00,648.000000,,2013-11-03 19:53:00,
2013-11-03 12:22:00,71.0,54.0,29.87,South,183,12.0,20.0,56,0.00,,,0.00,701.000000,,2013-11-03 20:22:00,
2013-11-03 12:32:00,71.0,54.0,29.87,South,183,12.0,20.0,56,0.00,,,0.00,701.000000,,2013-11-03 20:32:00,
2013-11-03 12:42:00,71.0,54.0,29.87,South,183,12.0,20.0,56,0.00,,,0.00,701.000000,,2013-11-03 20:42:00,
2013-11-03 12:52:00,71.0,54.0,29.87,South,183,12.0,20.0,56,0.00,,,0.00,701.000000,,2013-11-03 20:52:00,
2013-11-03 13:22:00,70.0,55.0,29.84,South,185,15.0,20.0,59,0.00,,,0.00,686.000000,,2013-11-03 21:22:00,
2013-11-03 13:34:00,70.0,55.0,29.84,South,185,15.0,20.0,59,0.00,,,0.00,686.000000,,2013-11-03 21:34:00,
2013-11-03 13:43:00,70.0,55.0,29.84,South,185,15.0,20.0,59,0.00,,,0.00,686.000000,,2013-11-03 21:43:00,
2013-11-03 13:54:00,70.0,55.0,29.84,South,185,15.0,20.0,59,0.00,,,0.00,686.000000,,2013-11-03 21:54:00,
2013-11-03 14:22:00,69.0,55.0,29.83,South,188,15.0,24.0,62,0.00,,,0.00,599.000000,,2013-11-03 22:22:00,
2013-11-03 14:33:00,69.0,55.0,29.83,South,188,15.0,24.0,62,0.00,,,0.00,599.000000,,2013-11-03 22:33:00,
2013-11-03 14:43:00,69.0,55.0,29.83,South,188,15.0,24.0,62,0.00,,,0.00,599.000000,,2013-11-03 22:43:00,
2013-11-03 14:52:00,69.0,55.0,29.83,South,188,15.0,24.0,62,0.00,,,0.00,599.000000,,2013-11-03 22:52:00,
2013-11-03 15:23:00,68.0,55.0,29.82,South,189,13.0,23.0,64,0.00,,,0.00,454.000000,,2013-11-03 23:23:00,
2013-11-03 15:34:00,68.0,55.0,29.82,South,189,13.0,23.0,64,0.00,,,0.00,454.000000,,2013-11-03 23:34:00,
2013-11-03 15:42:00,68.0,55.0,29.82,South,189,13.0,23.0,64,0.00,,,0.00,454.000000,,2013-11-03 23:42:00,
2013-11-03 15:53:00,68.0,55.0,29.82,South,189,13.0,23.0,64,0.00,,,0.00,454.000000,,2013-11-03 23:53:00,
2013-11-03 16:22:00,66.0,55.0,29.81,South,183,9.0,23.0,68,0.00,,,0.00,169.000000,,2013-11-04 00:22:00,
2013-11-03 16:32:00,66.0,55.0,29.81,South,183,9.0,23.0,68,0.00,,,0.00,169.000000,,2013-11-04 00:32:00,
2013-11-03 16:42:00,66.0,55.0,29.81,South,183,9.0,23.0,68,0.00,,,0.00,169.000000,,2013-11-04 00:42:00,
2013-11-03 16:52:00,66.0,55.0,29.81,South,183,9.0,23.0,68,0.00,,,0.00,169.000000,,2013-11-04 00:52:00,
2013-11-03 17:22:00,61.0,54.0,29.81,SSW,193,7.0,21.0,79,0.00,,,0.00,50.000000,,2013-11-04 01:22:00,
2013-11-03 17:32:00,61.0,54.0,29.81,SSW,193,7.0,21.0,79,0.00,,,0.00,50.000000,,2013-11-04 01:32:00,
2013-11-03 17:42:00,61.0,54.0,29.81,SSW,193,7.0,21.0,79,0.00,,,0.00,50.000000,,2013-11-04 01:42:00,
2013-11-03 17:52:00,61.0,54.0,29.81,SSW,193,7.0,21.0,79,0.00,,,0.00,50.000000,,2013-11-04 01:52:00,
2013-11-03 18:21:00,57.0,52.0,29.81,SE,145,4.0,15.0,84,0.00,,,0.00,0.000000,,2013-11-04 02:21:00,
2013-11-03 18:32:00,57.0,52.0,29.81,SE,145,4.0,15.0,84,0.00,,,0.00,0.000000,,2013-11-04 02:32:00,
2013-11-03 18:42:00,57.0,52.0,29.81,SE,145,4.0,15.0,84,0.00,,,0.00,0.000000,,2013-11-04 02:42:00,
2013-11-03 18:52:00,57.0,52.0,29.81,SE,145,4.0,15.0,84,0.00,,,0.00,0.000000,,2013-11-04 02:52:00,
2013-11-03 19:21:00,55.0,52.0,29.83,East,84,1.0,10.0,90,0.00,,,0.00,0.000000,,2013-11-04 03:21:00,
2013-11-03 19:34:00,55.0,52.0,29.83,East,84,1.0,10.0,90,0.00,,,0.00,0.000000,,2013-11-04 03:34:00,
2013-11-03 19:44:00,55.0,52.0,29.83,East,84,1.0,10.0,90,0.00,,,0.00,0.000000,,2013-11-04 03:44:00,
2013-11-03 19:54:00,55.0,52.0,29.83,East,84,1.0,10.0,90,0.00,,,0.00,0.000000,,2013-11-04 03:54:00,
2013-11-03 20:23:00,55.0,52.0,29.84,ENE,76,1.0,3.0,88,0.00,,,0.00,0.000000,,2013-11-04 04:23:00,
2013-11-03 20:34:00,55.0,52.0,29.84,ENE,76,1.0,3.0,88,0.00,,,0.00,0.000000,,2013-11-04 04:34:00,
2013-11-03 20:43:00,55.0,52.0,29.84,ENE,76,1.0,3.0,88,0.00,,,0.00,0.000000,,2013-11-04 04:43:00,
2013-11-03 20:52:00,55.0,52.0,29.84,ENE,76,1.0,3.0,88,0.00,,,0.00,0.000000,,2013-11-04 04:52:00,
2013-11-03 21:23:00,53.0,50.0,29.82,SE,136,1.0,4.0,91,0.00,,,0.00,0.000000,,2013-11-04 05:23:00,
2013-11-03 21:34:00,53.0,50.0,29.82,SE,136,1.0,4.0,91,0.00,,,0.00,0.000000,,2013-11-04 05:34:00,
2013-11-03 21:44:00,53.0,50.0,29.82,SE,136,1.0,4.0,91,0.00,,,0.00,0.000000,,2013-11-04 05:44:00,
2013-11-03 21:53:00,53.0,50.0,29.82,SE,136,1.0,4.0,91,0.00,,,0.00,0.000000,,2013-11-04 05:53:00,
2013-11-03 22:23:00,50.0,48.0,29.83,WSW,249,1.0,5.0,93,0.00,,,0.00,0.000000,,2013-11-04 06:23:00,
2013-11-03 22:32:00,50.0,48.0,29.83,WSW,249,1.0,5.0,93,0.00,,,0.00,0.000000,,2013-11-04 06:32:00,
2013-11-03 22:42:00,50.0,48.0,29.83,WSW,249,1.0,5.0,93,0.00,,,0.00,0.000000,,2013-11-04 06:42:00,
2013-11-03 22:52:00,50.0,48.0,29.83,WSW,249,1.0,5.0,93,0.00,,,0.00,0.000000,,2013-11-04 06:52:00,
2013-11-03 23:21:00,51.0,50.0,29.82,NNE,21,2.0,4.0,95,0.00,,,0.00,0.000000,,2013-11-04 07:21:00,
2013-11-03 23:32:00,51.0,50.0,29.82,NNE,21,2.0,4.0,95,0.00,,,0.00,0.000000,,2013-11-04 07:32:00,
2013-11-03 23:42:00,51.0,50.0,29.82,NNE,21,2.0,4.0,95,0.00,,,0.00,0.000000,,2013-11-04 07:42:00,
2013-11-03 23:52:00,51.0,50.0,29.82,NNE,21,2.0,4.0,95,0.00,,,0.00,0.000000,,2013-11-04 07:52:00,